Vorticity
5 6 8 5 4 6 7 1 -5 -1 8 5 5 6 -0 6 5 6 7 5 6 5 6 3 3 3 3 5 6 5 2 1 -0 3 -0 5 -1 -5 33 31 2 6 7 -0 -4 1 4 4 3 3 4 3 4 3 1 1 3 3 2 3 4 5 6 6 6 7 6 7 7 5 7 6 7 7 5 5 4 3 4 4 5 5 5 5 5 5 6 6 7 7 7 7 7 6 6 5 5
3 6 7 5 6 6 6 7 2 -8 2 6 0 3 -1 3 6 3 6 6 5 5 5 4 4 2 2 3 5 4 3 3 -1 2 -1 4 4 0 30 28 2 4 11 7 -1 -1 3 5 4 4 5 4 6 5 2 1 2 2 1 1 4 6 6 7 6 7 7 6 7 5 6 7 6 7 6 5 5 4 4 4 4 5 5 5 5 4 5 5 6 7 7 7 7 6 5 5 5
2 3 3 6 5 8 8 -3 7 2 -5 6 1 -2 -5 0 10 4 2 6 5 6 4 3 5 2 3 2 1 1 -0 3 2 3 0 2 -0 9 31 15 0 2 2 4 -0 -3 0 5 4 4 5 4 6 6 3 3 2 1 1 0 2 5 7 8 7 7 7 6 6 5 5 7 7 7 7 6 5 5 4 4 4 5 5 5 5 4 4 5 6 7 6 6 6 5 5 5 5
3 3 1 5 3 9 11 -11 6 13 -7 2 4 2 -3 -5 12 12 1 6 6 7 6 4 6 3 2 3 2 1 0 -0 4 6 4 6 1 15 34 15 4 1 -6 -1 -3 -4 -0 4 4 4 5 3 4 4 4 3 2 1 0 0 1 4 7 9 9 7 6 5 5 5 5 6 8 7 6 6 6 5 5 5 4 5 5 5 5 4 4 4 5 6 6 6 5 5 5 5 6
5 3 0 4 8 10 12 7 19 16 0 2 4 11 3 -12 6 20 6 2 6 4 4 4 4 4 4 2 2 3 5 4 4 6 7 9 6 16 31 22 11 -0 -2 5 1 -2 1 4 4 4 4 3 3 3 3 3 3 2 2 1 2 3 7 11 11 8 5 5 6 6 6 7 9 7 6 6 5 6 6 5 5 5 5 5 5 5 5 4 5 6 5 5 5 4 5 5 6
1 -3 -1 3 11 10 8 14 19 13 10 3 -3 11 7 -13 -4 20 16 0 2 4 2 3 1 0 4 2 4 5 7 11 6 4 6 7 8 12 23 26 12 -1 5 9 3 -0 1 4 4 4 5 4 4 4 3 5 4 4 4 2 3 4 6 11 11 9 6 7 8 9 9 9 9 7 6 5 5 5 6 6 6 5 5 5 6 6 5 5 5 5 5 4 4 4 4 4 5
-1 1 3 7 11 6 5 4 8 15 20 11 -3 3 7 -5 -13 6 22 6 -2 6 5 3 3 1 1 2 5 9 6 5 4 1 4 6 9 8 17 29 12 -2 5 4 2 3 2 4 4 4 5 5 4 4 3 4 6 4 5 3 4 5 6 9 10 9 8 9 9 9 9 9 9 7 6 5 5 5 6 6 6 6 5 5 6 6 6 5 5 4 4 4 4 3 3 3 4
1 15 7 16 25 4 3 3 3 11 20 23 6 -2 3 1 -11 -10 13 16 -2 -1 9 4 3 4 4 4 -1 -0 4 6 6 2 3 4 6 4 14 33 16 -1 3 1 2 2 4 5 4 5 3 4 3 3 3 4 6 6 5 4 4 4 5 6 6 6 6 9 8 8 9 9 9 8 7 5 5 4 5 6 6 6 5 6 5 6 6 6 5 5 4 3 4 3 3 3 3
-1 16 5 14 29 4 2 6 3 4 11 22 11 2 4 1 -4 -16 -7 19 13 -5 5 9 4 5 2 4 2 -0 3 8 10 9 10 9 8 5 14 35 19 1 2 -2 3 4 3 4 3 5 3 3 3 3 3 3 5 6 5 4 5 4 4 3 3 2 1 3 4 5 7 9 10 9 9 7 6 5 5 5 5 6 5 6 5 6 6 6 6 5 4 3 4 4 4 3 3
-4 9 8 5 12 5 4 5 4 1 1 10 5 6 18 12 1 -8 -18 -1 20 7 0 8 7 5 2 2 4 7 6 7 14 16 12 9 13 10 14 33 16 2 7 -2 -2 1 1 3 3 3 4 4 4 3 3 3 3 4 5 4 5 4 4 4 3 2 -0 -1 -0 -0 1 6 8 8 9 8 8 7 6 6 5 6 6 6 5 6 6 5 6 5 5 4 4 4 4 3 3
-1 3 9 5 2 5 5 2 5 1 -4 2 -1 6 27 25 8 3 -11 -15 8 11 -0 5 9 4 2 4 4 8 9 10 15 16 12 10 15 10 8 27 22 2 -6 -9 -7 -6 -2 2 3 3 4 4 3 4 3 2 2 2 4 4 5 5 5 5 5 5 3 1 1 0 -0 2 5 6 8 8 8 8 7 7 6 6 6 6 6 5 6 6 6 6 5 4 4 4 4 4 4
4 2 6 8 2 2 6 3 2 -0 -1 4 1 -0 13 21 21 20 4 -12 -6 4 -4 -7 4 4 2 5 5 6 8 7 9 12 12 8 10 10 5 17 25 6 -14 -5 4 -3 -0 4 4 5 4 5 4 4 4 3 2 1 3 4 4 4 5 6 6 8 7 6 5 5 5 5 5 5 6 6 6 7 7 7 7 6 6 6 6 5 5 6 6 6 5 4 4 4 5 4 4
4 3 2 8 6 2 7 6 2 0 -2 5 7 -4 -1 8 17 29 25 3 -15 -7 -1 -9 -5 -0 1 4 4 5 7 3 1 6 8 5 7 9 8 10 17 16 9 17 12 -4 1 5 4 5 3 5 6 5 6 4 2 1 2 3 2 3 5 6 6 7 8 8 8 8 9 9 7 6 6 5 5 6 6 7 7 7 6 7 7 6 5 6 6 5 4 4 4 4 4 4 4
4 4 3 6 5 3 6 7 5 6 -4 -3 10 -0 -4 2 0 15 30 25 4 -7 -9 -9 -6 -4 2 10 10 7 5 6 1 1 4 8 10 5 6 10 11 14 17 17 5 -4 3 5 4 4 3 4 5 7 8 5 3 1 2 2 2 3 4 5 5 6 7 8 9 9 9 9 9 9 7 6 5 5 5 6 7 7 7 7 7 6 6 6 6 5 5 4 4 4 4 4 5
4 4 5 7 5 3 3 5 4 10 1 -7 8 4 -3 -0 -3 5 9 17 30 24 6 -5 -5 -3 5 13 13 7 4 9 9 8 10 9 7 5 5 7 10 9 9 10 2 -2 2 3 3 2 2 3 2 4 8 7 5 2 2 2 1 2 4 5 5 6 8 8 9 9 9 9 9 9 7 6 6 5 5 5 6 8 8 7 6 6 7 6 5 5 5 5 5 4 4 4 5
6 3 5 8 7 6 2 1 1 7 5 -4 4 8 6 -2 -5 5 1 -1 16 31 31 20 11 2 6 11 6 7 9 6 5 8 12 8 2 2 3 3 7 8 4 6 3 -2 0 1 1 2 2 2 0 -0 4 9 7 3 2 1 0 1 3 4 4 5 7 8 10 10 9 8 8 8 7 7 6 5 5 5 7 9 9 7 5 6 6 6 6 6 6 5 4 4 4 4 5
8 5 6 8 6 8 5 2 3 4 2 0 5 8 11 3 -5 2 3 5 3 6 18 29 35 13 4 12 6 8 11 6 4 3 5 7 8 6 4 1 2 6 3 4 4 -2 -4 -5 -4 1 2 1 2 3 4 8 9 4 2 1 -1 0 2 2 3 4 5 7 10 11 9 8 8 8 7 6 7 6 5 5 7 9 9 7 5 5 6 6 6 6 5 5 5 5 4 5 5
12 9 7 8 6 6 6 4 4 5 3 4 8 7 11 6 -2 2 5 10 5 1 3 20 43 19 -2 9 8 8 7 7 6 0 1 2 8 11 7 4 0 3 4 3 5 3 -4 -8 -8 -5 -1 1 3 7 7 9 11 5 2 1 -1 -1 1 1 2 3 3 5 9 10 9 8 8 8 8 7 6 7 6 6 7 8 8 6 5 5 6 6 6 6 4 4 5 5 5 5 5
11 11 9 8 8 6 4 5 4 5 5 5 5 4 11 5 -5 1 6 8 5 5 -2 8 41 23 -4 4 3 4 5 4 5 3 6 4 5 8 9 9 4 2 3 1 2 6 3 -4 -4 -4 -5 1 4 6 9 10 11 7 2 0 -1 -1 -0 0 1 2 3 4 8 10 9 8 8 8 7 7 7 6 6 7 7 7 6 5 5 5 6 6 5 5 4 4 4 4 4 4 5
7 8 9 8 9 9 7 7 5 6 6 5 5 4 7 2 -2 4 4 6 7 6 -4 -2 33 27 -2 2 -3 -4 4 1 4 8 4 2 2 2 4 6 6 5 3 2 0 2 6 2 2 0 -6 0 5 2 5 11 12 9 4 -0 -1 -1 -0 0 0 1 3 4 7 9 9 8 8 8 8 7 6 6 7 7 7 6 6 5 5 5 6 6 4 4 4 4 5 4 4 4 5
4 5 6 6 7 8 9 8 8 7 6 5 6 6 6 2 5 7 3 7 6 1 -1 -5 21 31 1 -2 0 -11 -3 2 3 3 -1 1 1 -3 -0 3 5 6 3 4 4 2 5 5 3 4 -3 -2 4 -1 -1 9 13 10 5 1 -1 -1 -0 0 0 0 1 3 5 8 10 9 8 8 8 7 6 7 7 7 7 6 6 6 5 5 6 6 4 3 5 5 5 5 4 5 5
3 3 3 5 4 5 7 7 9 8 8 8 7 6 8 9 10 8 3 10 8 -1 5 0 10 34 13 -0 12 0 -9 -0 2 -1 0 1 -1 1 6 5 5 6 6 3 2 3 5 7 5 6 1 -4 1 0 -3 3 11 11 6 2 -0 -0 -0 0 0 -0 0 2 4 7 10 10 8 7 7 7 7 7 7 7 8 7 7 6 6 7 7 7 4 5 7 6 6 5 5 5 5
7 6 4 4 2 3 4 4 6 6 8 8 9 10 8 11 12 12 10 8 8 3 8 6 -1 21 28 9 11 14 4 0 1 -0 1 2 1 8 9 5 5 7 9 4 2 4 5 5 4 7 2 -5 -2 0 -2 -3 2 7 8 4 1 1 -0 0 1 -0 -0 1 3 6 9 10 8 7 7 7 7 7 8 8 8 9 8 7 8 9 8 7 5 6 7 6 8 7 6 5 4
8 7 7 6 4 2 2 3 3 3 6 6 7 9 7 11 10 13 17 6 5 8 8 12 1 4 23 21 6 5 9 3 0 -4 -9 -4 1 4 3 2 5 8 9 6 6 7 7 1 -1 9 6 -5 -4 -0 1 -4 -5 0 6 7 3 2 1 -0 1 0 -0 1 3 6 8 10 9 8 6 6 7 7 8 9 10 10 10 9 9 9 8 7 7 7 7 8 9 8 6 4 5
10 8 7 7 8 6 4 4 3 3 3 4 5 5 6 9 10 14 16 5 4 10 7 10 11 4 7 24 18 -3 0 2 -2 -2 -4 -0 4 5 1 -4 1 8 8 7 10 14 15 2 -3 14 12 -1 -3 -3 -0 -1 -3 -3 4 10 5 2 2 1 1 0 0 1 2 5 8 10 9 8 7 6 7 7 8 10 11 11 11 10 9 9 8 7 8 8 8 8 8 6 5 4 7
17 14 11 8 8 7 8 6 5 5 3 4 3 3 6 4 10 16 8 3 8 10 10 6 9 11 0 15 27 1 -3 8 1 0 6 4 0 2 0 -6 -2 5 3 4 9 14 14 6 8 20 11 1 -1 -3 -0 -0 0 -1 4 13 6 2 2 2 2 0 1 1 1 3 7 10 9 8 7 7 7 8 9 10 12 11 10 10 9 8 7 6 8 9 9 7 6 5 4 6 9
18 19 17 14 11 7 8 7 7 7 5 7 4 4 6 2 11 15 2 4 11 8 11 8 4 11 5 7 22 9 -3 6 7 5 4 0 -5 -7 -3 1 2 0 -1 3 5 6 9 11 16 13 5 5 2 0 4 1 2 1 5 15 6 1 3 2 3 1 1 2 1 0 4 9 10 9 8 8 9 10 9 9 12 11 9 9 9 8 7 8 10 11 9 6 4 5 6 9 10
16 17 18 18 17 15 12 10 9 7 6 7 6 7 5 7 15 8 -2 1 7 10 11 10 6 8 9 6 12 16 5 -7 -3 6 -0 -5 3 4 0 4 5 1 1 5 4 2 5 9 10 5 7 13 4 0 2 1 5 2 9 19 6 0 4 2 3 2 1 3 2 -1 2 8 10 9 9 8 9 11 9 9 11 10 9 8 8 8 9 10 12 10 8 5 3 6 9 10 9
16 15 15 17 17 17 17 15 14 12 10 8 6 8 5 13 13 -4 -4 -1 -1 10 11 11 10 6 8 9 6 12 17 1 -13 -1 3 -5 2 8 3 2 6 6 5 5 3 2 2 0 2 1 2 6 3 0 -2 0 7 5 11 18 5 1 3 2 3 1 1 3 2 1 3 9 11 9 9 8 9 11 10 10 10 10 9 7 7 9 10 10 11 8 5 3 4 7 10 9 9
15 15 13 14 15 15 15 15 16 16 15 13 10 8 7 11 7 -3 3 4 -0 6 8 10 12 8 5 8 8 3 14 20 -7 -19 -1 7 3 -3 -8 -9 -2 3 5 5 4 5 4 -0 1 3 1 2 3 2 1 3 7 7 11 11 3 3 3 2 3 1 3 2 1 3 8 11 11 10 10 8 9 11 12 11 9 9 8 6 8 10 10 10 9 6 4 2 4 8 9 8 8
14 15 14 14 14 13 13 13 14 16 17 16 15 12 8 7 5 5 9 7 5 5 4 8 10 11 8 3 9 5 5 24 18 -10 -13 5 9 -2 -13 -16 -9 -3 -1 3 5 7 8 5 4 6 5 4 4 5 7 7 7 9 10 6 3 4 3 2 2 2 2 1 3 6 10 12 11 10 10 9 10 11 13 12 8 8 8 6 8 10 9 9 9 6 3 2 4 8 7 7 7
12 13 13 13 15 15 14 14 11 12 14 13 16 15 10 9 8 8 10 7 9 7 2 5 8 10 11 4 4 7 2 11 29 21 -3 -7 -0 1 -1 -1 -1 -3 -4 -1 1 3 6 5 2 2 5 4 2 5 9 10 11 12 9 3 3 5 4 3 2 2 1 2 6 7 8 12 12 10 10 9 10 12 13 11 8 7 7 8 10 10 8 9 10 7 4 3 6 7 6 6 7
9 10 12 11 13 15 13 14 14 12 12 10 12 14 9 10 11 10 11 9 8 11 6 4 6 8 11 9 2 4 5 2 14 25 12 -5 -9 -8 0 10 8 -2 -3 -1 -2 0 3 3 -0 -2 4 5 4 9 13 14 14 10 6 4 5 5 5 4 1 1 1 4 8 6 5 10 12 11 11 11 10 11 11 10 9 8 7 9 11 9 8 8 8 7 5 4 7 7 6 7 8
6 8 10 9 10 12 10 11 14 14 14 13 13 14 11 10 11 12 14 13 10 10 9 6 5 5 8 12 8 2 3 3 4 14 16 12 11 4 -6 -0 7 2 2 4 1 -1 -2 0 -1 -6 -2 5 11 19 17 11 11 8 6 7 6 7 6 3 0 1 3 4 6 6 4 6 10 11 11 12 10 9 10 9 9 9 9 10 11 10 9 8 7 6 6 6 6 6 7 9 9
5 5 6 7 7 8 8 9 12 13 14 15 14 14 12 12 11 11 12 13 13 10 8 9 7 5 5 8 11 7 3 3 1 4 8 12 23 24 4 -9 -2 0 3 7 0 -6 -3 1 0 -4 -2 3 10 23 19 7 7 7 6 7 5 8 6 -0 -0 2 3 2 3 6 5 5 9 10 11 11 10 8 8 9 9 9 10 10 10 10 9 7 5 6 7 6 5 6 8 10 10
5 6 5 6 6 6 6 7 8 10 12 13 15 14 12 13 11 10 12 12 14 13 9 10 10 7 6 6 9 10 6 4 3 5 4 1 10 24 19 3 -1 4 7 6 -5 -6 6 4 -1 2 3 0 9 28 24 8 7 6 5 6 5 7 5 -1 1 3 3 1 2 5 5 6 7 8 10 11 11 10 8 8 9 9 9 10 10 9 8 5 4 6 7 5 5 7 9 10 10
6 6 7 6 5 5 5 6 6 6 9 11 14 16 12 13 14 11 13 13 12 14 12 11 10 9 7 6 7 10 9 7 5 3 1 -1 -1 10 20 15 11 12 9 0 -11 -7 6 2 -0 5 3 3 17 30 23 8 6 5 4 5 5 7 5 2 4 4 5 3 3 4 4 6 7 8 9 11 12 10 8 7 8 9 9 9 9 8 8 6 4 4 6 6 5 7 10 10 9
7 6 6 5 5 5 4 5 5 5 9 8 9 15 13 11 16 15 14 14 13 12 13 12 10 11 9 7 6 7 9 11 6 0 -0 1 -0 2 13 17 14 14 11 2 -5 -6 1 5 5 3 3 10 13 15 16 11 5 2 3 4 3 4 2 1 3 5 7 6 5 5 4 4 7 8 8 11 13 10 7 6 6 9 10 8 7 8 9 8 5 4 6 6 6 7 9 9 8
12 9 7 5 4 3 3 3 3 4 10 8 5 12 12 7 12 17 16 16 14 13 14 13 12 12 11 9 7 6 7 9 8 5 3 3 3 2 6 9 7 10 12 5 -1 -1 3 9 7 1 7 13 4 4 13 10 3 0 0 1 0 -0 -2 -3 -1 3 6 9 8 5 4 5 6 7 8 10 12 10 7 5 7 9 9 8 6 6 8 9 8 6 6 7 6 7 8 8 7
14 14 14 11 7 5 6 4 2 5 10 8 5 11 12 6 7 13 16 19 16 14 15 14 13 14 13 10 8 7 6 6 9 9 5 4 3 0 2 5 3 6 13 7 -1 4 12 11 3 2 10 10 2 5 8 5 3 0 -6 -6 -1 2 -0 -2 -1 1 6 10 8 6 5 5 6 7 8 10 11 11 8 5 6 8 9 8 6 7 9 8 9 7 6 7 6 7 7 7 7
13 13 16 15 12 12 12 10 8 8 10 9 7 12 14 4 3 9 13 18 17 14 18 15 13 15 14 12 9 8 8 5 8 10 7 4 2 2 5 8 6 7 18 17 7 10 17 10 2 5 10 7 3 2 2 4 4 -2 -12 -14 -5 3 3 1 0 1 6 10 8 6 7 6 7 8 7 9 11 10 8 5 5 6 8 7 7 15 12 3 6 8 6 7 6 6 7 7 6
11 11 12 13 11 11 11 10 10 10 10 9 7 14 18 4 1 8 7 13 16 13 18 17 13 14 13 14 12 8 10 7 6 10 10 6 5 6 4 4 9 14 24 27 18 11 10 6 4 7 9 3 -1 -2 -1 4 4 -1 -9 -17 -11 3 4 2 2 2 6 10 7 5 8 8 8 8 7 9 10 9 7 5 5 5 7 7 7 14 11 1 3 7 7 8 7 7 7 7 7
10 10 9 9 9 10 10 7 8 11 8 7 7 14 20 7 -1 6 5 8 11 9 17 17 13 16 14 14 14 9 10 10 7 8 9 7 6 5 2 2 5 14 26 25 17 11 4 3 5 8 9 0 -4 -2 -0 1 1 2 -2 -14 -13 -1 4 3 4 6 8 9 6 6 9 10 9 7 7 9 9 9 7 6 6 6 8 9 7 8 8 6 5 7 9 8 7 8 8 9 9
6 9 10 9 8 8 10 8 8 12 8 7 7 8 20 18 1 -0 6 11 9 6 16 16 13 19 18 14 14 11 10 10 9 8 8 8 7 5 7 7 1 10 24 14 3 7 6 4 3 8 11 -1 -7 0 1 1 0 1 1 -9 -14 -4 3 4 6 9 10 8 7 10 12 10 9 7 6 9 9 8 7 5 7 10 11 10 8 6 7 7 8 10 10 8 6 7 8 12 12
18 15 11 8 8 8 9 9 9 11 9 10 9 4 17 23 5 -3 4 12 12 8 15 15 12 19 23 19 15 11 11 10 10 9 6 7 8 6 7 9 3 4 12 7 -0 2 6 8 3 5 10 -1 -6 -1 0 5 2 -2 3 -6 -15 -6 3 5 8 9 8 8 10 12 12 9 7 7 7 9 10 7 5 7 11 12 12 12 7 3 5 7 9 12 12 9 6 3 3 5 7
38 29 19 12 11 10 9 9 8 11 11 10 11 6 12 19 10 4 7 11 12 10 13 14 11 15 21 24 18 11 11 11 9 11 8 5 7 8 6 6 6 4 5 7 3 -2 2 8 3 3 6 0 0 2 1 7 3 -2 4 -4 -15 -5 4 7 9 9 6 9 12 13 11 8 6 7 8 10 9 6 5 9 13 11 12 13 7 2 6 8 7 8 11 10 7 5 3 2 4
33 35 32 25 20 17 15 14 11 11 9 7 11 10 12 18 13 9 12 14 11 10 12 12 12 14 18 26 25 13 10 12 11 10 9 6 6 8 6 3 4 6 9 7 1 -3 -0 2 0 2 3 -0 4 6 4 5 3 2 5 -6 -13 -3 6 8 8 7 6 6 10 13 10 7 7 7 9 10 8 6 6 10 13 10 12 15 9 5 7 8 7 8 10 10 10 11 9 9 8
17 22 28 25 25 23 21 20 16 13 10 10 14 12 11 17 16 9 12 16 13 12 15 11 9 13 14 23 32 21 9 10 12 11 9 8 7 5 5 5 4 3 7 9 3 -1 -0 1 2 3 1 1 4 5 6 7 5 5 3 -8 -8 3 7 8 7 5 5 4 9 15 11 7 8 7 9 10 7 5 7 11 11 8 9 11 9 7 9 9 8 10 10 9 10 12 10 12 8
15 15 19 19 19 18 17 20 19 17 19 22 22 17 11 14 16 12 10 13 14 15 19 14 10 13 11 15 30 31 17 8 11 12 9 7 6 4 4 6 6 2 4 9 5 -0 -1 2 6 3 0 3 4 2 6 8 5 4 0 -6 -2 7 8 7 6 5 4 3 9 15 12 9 9 8 10 10 7 6 8 10 10 9 8 7 7 10 13 10 6 8 9 6 7 9 7 11 13
13 13 14 15 14 13 15 17 17 19 22 23 20 16 14 16 19 20 17 16 15 14 15 13 11 13 11 12 22 32 26 12 9 13 11 8 6 5 5 7 8 3 4 9 5 1 0 0 4 3 0 3 3 2 5 5 5 3 -2 -1 6 9 8 5 4 5 3 3 10 15 12 10 9 10 11 9 5 6 9 9 8 8 8 7 9 14 13 7 4 6 7 6 6 7 8 12 17
11 15 15 12 11 13 14 11 14 18 17 19 19 16 18 21 20 20 21 17 13 13 12 10 12 12 9 11 18 27 29 18 9 11 12 10 8 6 3 7 9 2 3 9 6 4 2 1 4 3 1 2 -5 -6 1 3 4 2 -3 5 12 8 6 4 4 5 2 3 11 15 12 10 9 10 10 7 5 7 10 11 6 1 4 9 9 10 8 5 5 6 6 8 9 10 13 15 14
17 18 11 10 15 17 16 13 12 12 11 13 12 9 14 22 21 18 22 21 16 18 18 11 13 13 8 10 16 24 30 23 11 10 14 11 8 9 3 5 10 4 2 5 2 3 3 -0 4 4 2 2 -7 -11 -3 -0 0 -3 -1 13 15 5 4 5 5 5 1 4 13 14 12 10 10 12 9 5 6 9 11 12 6 1 6 13 9 5 6 5 6 7 8 11 9 9 15 17 12
19 17 13 14 16 16 14 11 11 15 18 16 10 11 16 20 19 12 14 22 18 16 20 18 17 16 11 12 17 23 31 31 15 7 14 14 7 8 5 4 8 5 3 2 -2 2 4 -1 -0 2 1 2 1 -2 -4 -3 -2 -6 1 18 13 2 6 6 5 5 1 5 14 14 11 11 11 12 7 5 8 9 10 8 6 4 7 11 9 6 7 6 7 9 10 13 13 12 14 11 6
17 23 27 21 14 13 11 6 7 12 18 20 19 17 9 9 23 28 28 35 31 20 16 17 18 18 18 18 19 23 30 33 23 9 11 15 10 8 6 4 6 7 5 2 -1 1 4 -1 -7 -4 2 2 4 4 -2 -4 -2 -7 4 19 11 2 7 6 5 5 1 6 14 12 10 11 13 10 5 5 8 8 8 6 5 7 7 8 7 7 7 8 9 10 10 14 15 13 10 5 4
21 28 31 21 13 14 13 10 12 9 10 15 14 13 15 20 32 40 40 40 40 36 27 21 19 17 21 25 22 24 30 31 25 14 10 13 11 8 7 4 5 8 6 2 -0 -1 2 2 -7 -6 3 3 3 3 -4 -5 -5 -6 7 19 9 3 7 6 5 4 1 6 12 10 10 13 13 8 4 6 8 8 7 7 6 6 7 8 7 7 7 8 10 10 10 13 11 8 6 5 6
26 29 28 23 16 15 15 11 12 9 6 10 14 27 43 40 23 17 26 29 30 37 39 41 44 35 27 27 23 22 26 29 27 17 10 13 13 10 7 5 6 8 7 5 3 0 2 2 -4 -5 -1 0 3 1 -6 -7 -7 -4 11 18 7 3 6 7 6 4 3 6 9 8 10 15 12 6 4 6 8 7 5 6 6 5 7 8 7 7 7 8 9 9 11 12 10 7 7 7 7
25 26 30 32 22 18 18 11 9 9 6 10 23 34 35 23 9 14 28 22 9 14 22 31 47 50 40 34 34 33 26 23 26 20 10 10 12 12 8 4 6 9 6 5 5 2 2 1 -5 -5 -2 -0 3 2 -1 -3 -6 1 15 15 5 2 6 8 6 4 4 6 7 7 10 14 10 4 5 6 7 7 5 6 6 5 6 7 7 7 8 8 9 9 10 11 10 9 8 9 9
26 29 35 33 22 17 17 14 13 12 12 13 14 21 22 8 3 21 28 7 -7 5 16 20 28 33 34 32 36 45 40 28 25 20 13 11 12 12 10 5 5 9 7 4 4 4 2 1 -4 -6 -2 0 -0 2 3 -1 -2 9 18 10 3 4 7 9 5 3 6 6 5 8 11 14 9 4 5 7 6 6 5 5 4 4 5 6 6 8 9 9 10 10 11 10 10 9 9 10 10
Height
5857 5859 5860 5861 5862 5864 5865 5867 5869 5870 5871 5872 5874 5875 5875 5875 5875 5877 5877 5878 5880 5881 5882 5882 5883 5883 5883 5883 5884 5884 5884 5884 5884 5884 5886 5887 5887 5889 5890 5891 5892 5892 5892 5891 5891 5891 5891 5891 5891 5891 5891 5890 5890 5890 5890 5890 5889 5889 5888 5888 5887 5887 5886 5886 5886 5885 5885 5885 5885 5884 5884 5884 5883 5883 5882 5882 5881 5881 5880 5880 5880 5880 5879 5879 5879 5879 5878 5878 5877 5877 5876 5876 5875 5874 5874 5873 5873
5853 5855 5857 5858 5859 5860 5861 5863 5865 5866 5868 5870 5872 5872 5873 5873 5873 5875 5876 5877 5878 5879 5880 5880 5881 5881 5882 5882 5882 5883 5883 5883 5883 5883 5883 5884 5885 5887 5888 5889 5890 5890 5890 5889 5889 5889 5890 5890 5890 5890 5890 5889 5889 5889 5889 5889 5889 5888 5888 5887 5887 5886 5886 5886 5885 5885 5885 5885 5885 5885 5884 5884 5883 5883 5882 5882 5881 5881 5880 5880 5880 5879 5879 5879 5879 5879 5878 5878 5878 5877 5877 5876 5875 5874 5873 5873 5873
5850 5851 5853 5854 5855 5856 5857 5859 5861 5863 5865 5867 5869 5870 5870 5871 5871 5873 5875 5875 5877 5878 5878 5878 5879 5879 5880 5881 5881 5882 5882 5882 5882 5882 5882 5883 5884 5885 5886 5887 5887 5887 5887 5886 5887 5888 5888 5889 5890 5890 5890 5889 5889 5889 5888 5888 5888 5888 5888 5887 5886 5885 5885 5885 5885 5885 5885 5885 5885 5885 5885 5884 5884 5883 5882 5882 5881 5880 5880 5880 5880 5880 5879 5879 5879 5879 5879 5878 5878 5877 5877 5876 5875 5874 5873 5872 5872
5846 5847 5849 5850 5851 5851 5853 5855 5857 5859 5861 5863 5867 5867 5868 5869 5868 5870 5873 5873 5874 5875 5876 5876 5877 5877 5878 5879 5880 5881 5881 5881 5881 5881 5881 5881 5882 5883 5884 5884 5884 5885 5886 5885 5885 5886 5887 5888 5889 5889 5889 5889 5889 5888 5888 5888 5888 5888 5887 5887 5886 5885 5885 5885 5885 5884 5884 5884 5885 5885 5885 5884 5884 5883 5882 5882 5881 5880 5880 5880 5880 5880 5879 5879 5879 5879 5878 5878 5878 5877 5876 5875 5874 5873 5873 5872 5872
5842 5843 5845 5846 5846 5847 5848 5850 5852 5855 5857 5861 5864 5865 5865 5867 5866 5866 5869 5871 5872 5873 5874 5874 5875 5875 5876 5877 5878 5879 5879 5880 5879 5879 5880 5880 5881 5882 5882 5882 5883 5885 5886 5886 5885 5885 5886 5888 5888 5889 5889 5888 5888 5888 5888 5887 5887 5887 5887 5886 5885 5885 5884 5884 5884 5884 5884 5884 5884 5885 5884 5884 5884 5883 5882 5881 5881 5880 5880 5880 5880 5879 5879 5879 5879 5879 5878 5878 5877 5877 5876 5875 5874 5873 5872 5872 5872
5837 5839 5840 5842 5842 5842 5844 5845 5848 5851 5855 5859 5861 5862 5862 5865 5864 5864 5866 5868 5870 5871 5871 5872 5873 5874 5875 5876 5876 5877 5878 5878 5878 5878 5879 5879 5880 5880 5881 5882 5883 5885 5885 5885 5885 5885 5885 5887 5888 5888 5888 5888 5888 5888 5888 5887 5887 5887 5886 5886 5885 5884 5884 5884 5884 5884 5884 5884 5884 5884 5884 5884 5883 5883 5882 5881 5880 5880 5880 5879 5879 5879 5879 5879 5879 5878 5878 5878 5877 5876 5875 5874 5873 5873 5872 5871 5871
5834 5835 5836 5837 5837 5838 5839 5841 5844 5847 5851 5855 5858 5859 5860 5862 5862 5861 5862 5865 5867 5868 5869 5870 5871 5872 5873 5874 5875 5875 5875 5876 5877 5877 5878 5878 5878 5879 5880 5881 5882 5884 5884 5884 5885 5884 5885 5886 5887 5888 5888 5888 5887 5887 5887 5887 5887 5886 5886 5885 5885 5884 5884 5883 5883 5883 5884 5884 5884 5884 5884 5883 5883 5882 5882 5881 5880 5879 5879 5879 5878 5878 5879 5879 5878 5878 5878 5877 5877 5876 5875 5874 5873 5872 5871 5871 5870
5830 5831 5832 5833 5833 5833 5834 5836 5840 5843 5847 5850 5854 5856 5856 5858 5859 5860 5859 5860 5863 5865 5866 5867 5868 5870 5871 5872 5873 5873 5873 5875 5875 5876 5876 5877 5877 5878 5879 5880 5881 5882 5882 5882 5883 5883 5883 5885 5886 5887 5887 5887 5886 5886 5886 5887 5887 5886 5886 5885 5885 5884 5883 5883 5883 5883 5883 5884 5884 5883 5883 5883 5883 5882 5881 5881 5880 5879 5879 5878 5878 5878 5878 5878 5878 5877 5877 5877 5876 5875 5874 5873 5873 5872 5871 5870 5870
5826 5826 5827 5828 5828 5828 5829 5832 5836 5839 5843 5847 5850 5852 5852 5854 5855 5857 5857 5857 5859 5862 5863 5863 5866 5868 5869 5870 5870 5871 5872 5873 5873 5874 5875 5875 5876 5877 5878 5878 5878 5879 5880 5881 5881 5881 5882 5883 5884 5885 5886 5886 5886 5885 5886 5886 5886 5886 5885 5885 5885 5884 5883 5883 5883 5883 5883 5884 5883 5883 5883 5883 5882 5882 5881 5880 5879 5879 5878 5878 5878 5877 5877 5877 5877 5876 5876 5876 5875 5875 5874 5872 5872 5872 5871 5870 5870
5821 5822 5823 5824 5824 5824 5824 5827 5831 5836 5841 5844 5846 5848 5848 5848 5850 5852 5853 5853 5855 5858 5859 5860 5863 5866 5867 5867 5868 5869 5870 5871 5872 5872 5873 5873 5874 5875 5876 5876 5876 5878 5879 5880 5880 5880 5880 5882 5883 5884 5885 5885 5885 5885 5885 5886 5886 5886 5885 5885 5884 5884 5883 5882 5882 5882 5883 5883 5883 5883 5883 5882 5882 5882 5881 5880 5879 5878 5878 5877 5877 5877 5877 5877 5876 5876 5875 5875 5875 5874 5873 5872 5871 5871 5870 5869 5869
5816 5816 5818 5818 5818 5819 5820 5823 5828 5833 5838 5841 5843 5844 5843 5842 5844 5846 5848 5849 5851 5855 5856 5857 5860 5863 5864 5865 5866 5867 5869 5869 5870 5870 5871 5871 5872 5872 5874 5875 5875 5876 5878 5878 5878 5878 5880 5881 5883 5884 5884 5885 5885 5885 5885 5885 5885 5885 5885 5885 5884 5884 5883 5882 5882 5882 5882 5882 5882 5882 5882 5882 5882 5881 5880 5880 5879 5878 5877 5877 5877 5876 5876 5876 5875 5875 5874 5874 5874 5873 5872 5871 5871 5870 5870 5869 5868
5812 5812 5813 5813 5813 5815 5817 5820 5824 5829 5833 5836 5838 5840 5839 5838 5839 5842 5843 5846 5849 5851 5853 5854 5856 5859 5860 5862 5864 5865 5867 5867 5868 5868 5869 5870 5871 5871 5872 5873 5874 5875 5876 5877 5876 5877 5880 5882 5883 5884 5884 5884 5884 5884 5884 5884 5885 5885 5884 5884 5884 5884 5883 5881 5881 5881 5882 5882 5882 5881 5881 5881 5881 5881 5880 5879 5878 5877 5877 5876 5876 5875 5875 5875 5874 5874 5873 5873 5873 5873 5871 5870 5870 5870 5869 5868 5867
5807 5808 5809 5807 5808 5811 5812 5815 5819 5824 5826 5830 5834 5836 5836 5835 5836 5838 5840 5844 5846 5847 5850 5851 5852 5855 5857 5860 5861 5863 5865 5865 5866 5867 5867 5868 5870 5870 5871 5872 5873 5874 5875 5876 5876 5877 5880 5881 5882 5883 5883 5884 5884 5883 5883 5884 5884 5884 5884 5884 5884 5883 5882 5881 5881 5881 5881 5881 5881 5880 5880 5880 5880 5880 5879 5878 5877 5877 5876 5876 5875 5875 5874 5874 5874 5873 5872 5872 5872 5872 5871 5869 5869 5869 5868 5867 5866
5803 5804 5804 5802 5803 5805 5806 5809 5813 5817 5820 5826 5831 5833 5833 5832 5833 5835 5837 5840 5843 5843 5846 5848 5849 5851 5853 5857 5859 5861 5863 5863 5864 5865 5866 5866 5867 5869 5870 5871 5872 5873 5874 5875 5875 5877 5879 5880 5881 5882 5882 5882 5883 5883 5883 5883 5883 5883 5883 5884 5883 5883 5882 5881 5881 5880 5880 5880 5880 5880 5879 5879 5879 5879 5878 5877 5877 5876 5875 5875 5874 5874 5874 5873 5873 5872 5871 5871 5871 5871 5870 5868 5868 5868 5867 5866 5866
5798 5800 5799 5797 5798 5799 5801 5803 5807 5811 5814 5822 5828 5829 5830 5830 5831 5832 5833 5836 5839 5839 5841 5844 5846 5847 5850 5854 5856 5858 5860 5861 5861 5862 5863 5864 5865 5867 5868 5870 5871 5872 5873 5874 5874 5876 5878 5879 5880 5880 5881 5881 5882 5882 5882 5882 5882 5882 5883 5883 5883 5882 5881 5881 5880 5880 5880 5879 5879 5879 5879 5878 5878 5877 5877 5876 5876 5875 5875 5874 5873 5873 5873 5872 5872 5871 5871 5870 5870 5870 5869 5868 5867 5867 5866 5866 5865
5794 5794 5793 5791 5791 5793 5796 5799 5803 5805 5808 5817 5824 5825 5827 5828 5828 5829 5831 5833 5835 5836 5837 5840 5841 5844 5847 5850 5853 5854 5856 5857 5857 5859 5860 5861 5863 5865 5866 5868 5870 5871 5872 5873 5874 5874 5876 5877 5878 5879 5879 5880 5880 5881 5881 5881 5881 5882 5882 5882 5882 5881 5881 5880 5880 5880 5879 5878 5878 5878 5878 5877 5877 5876 5876 5875 5875 5874 5874 5873 5872 5872 5872 5871 5871 5870 5870 5870 5869 5869 5868 5867 5866 5866 5865 5865 5864
5788 5788 5787 5785 5786 5788 5791 5795 5799 5801 5805 5813 5819 5821 5823 5825 5826 5827 5828 5828 5830 5833 5835 5836 5836 5839 5843 5846 5849 5851 5853 5854 5854 5855 5857 5859 5861 5863 5864 5866 5868 5870 5871 5872 5873 5873 5874 5875 5876 5877 5878 5878 5879 5880 5880 5880 5880 5881 5881 5881 5881 5881 5880 5880 5880 5880 5878 5878 5878 5877 5877 5877 5876 5875 5875 5874 5874 5873 5873 5872 5871 5871 5871 5870 5870 5869 5869 5868 5868 5868 5867 5866 5865 5864 5864 5863 5863
5781 5781 5780 5779 5782 5784 5788 5793 5795 5798 5801 5806 5812 5816 5819 5820 5822 5823 5823 5824 5825 5829 5831 5831 5832 5834 5839 5842 5845 5847 5849 5850 5852 5853 5855 5857 5859 5860 5862 5864 5866 5868 5869 5870 5871 5873 5873 5873 5873 5874 5876 5877 5877 5879 5879 5879 5879 5879 5880 5880 5880 5880 5879 5879 5879 5879 5878 5877 5877 5877 5876 5876 5875 5874 5874 5873 5873 5872 5872 5871 5870 5870 5869 5869 5868 5868 5868 5867 5867 5867 5866 5865 5864 5863 5863 5862 5862
5775 5776 5775 5775 5779 5781 5784 5788 5790 5792 5794 5798 5805 5810 5812 5814 5817 5817 5819 5820 5821 5825 5826 5827 5828 5831 5836 5839 5841 5843 5845 5847 5850 5852 5854 5856 5857 5859 5860 5862 5864 5865 5867 5868 5868 5870 5872 5871 5871 5872 5873 5875 5876 5877 5878 5878 5878 5878 5879 5879 5879 5879 5879 5879 5879 5878 5877 5877 5876 5876 5875 5875 5874 5873 5873 5872 5872 5871 5871 5870 5869 5869 5868 5867 5867 5866 5866 5866 5866 5866 5865 5864 5863 5862 5862 5861 5861
5769 5770 5770 5772 5776 5776 5778 5781 5782 5784 5788 5792 5797 5803 5806 5809 5810 5811 5814 5816 5816 5820 5822 5823 5826 5829 5832 5835 5837 5839 5841 5844 5847 5849 5852 5853 5855 5856 5857 5860 5862 5863 5865 5865 5866 5867 5869 5870 5870 5870 5871 5873 5874 5876 5876 5876 5876 5877 5877 5878 5878 5878 5878 5878 5878 5877 5877 5876 5876 5875 5874 5874 5873 5872 5871 5871 5870 5870 5869 5869 5868 5867 5867 5866 5865 5865 5865 5865 5865 5865 5864 5863 5862 5861 5860 5860 5859
5763 5765 5766 5768 5770 5770 5771 5773 5776 5779 5782 5786 5790 5796 5800 5802 5805 5808 5810 5811 5812 5816 5818 5820 5823 5826 5829 5831 5834 5835 5838 5842 5844 5847 5849 5851 5853 5853 5855 5857 5859 5861 5862 5863 5864 5865 5866 5867 5868 5868 5869 5870 5872 5873 5874 5875 5875 5875 5876 5876 5877 5877 5877 5877 5877 5876 5876 5875 5875 5874 5873 5873 5872 5871 5870 5870 5869 5869 5868 5867 5867 5866 5865 5865 5864 5863 5863 5863 5864 5864 5863 5862 5860 5859 5859 5859 5858
5757 5759 5761 5762 5763 5763 5765 5767 5770 5773 5776 5780 5784 5789 5793 5796 5800 5804 5806 5807 5810 5812 5814 5817 5820 5822 5825 5829 5832 5833 5836 5839 5841 5844 5847 5849 5850 5851 5852 5854 5857 5860 5861 5862 5862 5863 5863 5864 5865 5866 5867 5868 5869 5871 5872 5873 5873 5874 5874 5875 5875 5876 5876 5876 5876 5875 5875 5874 5873 5873 5872 5872 5871 5870 5869 5868 5868 5867 5866 5866 5865 5865 5864 5863 5862 5862 5862 5862 5862 5862 5862 5860 5859 5858 5858 5858 5857
5750 5753 5754 5755 5756 5757 5759 5761 5764 5768 5770 5774 5778 5782 5786 5790 5795 5798 5801 5804 5807 5810 5812 5814 5816 5818 5820 5824 5829 5830 5833 5836 5838 5841 5843 5845 5847 5848 5850 5852 5855 5857 5858 5860 5861 5861 5861 5862 5862 5864 5865 5865 5867 5869 5870 5871 5872 5872 5873 5873 5874 5874 5874 5875 5874 5874 5874 5873 5872 5871 5871 5870 5870 5869 5868 5867 5866 5865 5865 5864 5864 5863 5863 5862 5861 5861 5861 5861 5861 5860 5860 5859 5858 5857 5857 5857 5856
5743 5745 5747 5749 5749 5751 5754 5757 5759 5761 5765 5768 5772 5776 5779 5784 5789 5793 5796 5800 5803 5806 5809 5811 5811 5813 5816 5819 5823 5825 5829 5832 5834 5837 5839 5841 5843 5845 5847 5849 5852 5854 5856 5857 5858 5859 5859 5860 5860 5861 5863 5863 5864 5866 5867 5869 5870 5871 5871 5872 5872 5873 5873 5873 5873 5873 5872 5872 5871 5870 5869 5869 5868 5867 5866 5865 5865 5864 5863 5863 5862 5862 5861 5860 5860 5859 5859 5859 5859 5858 5858 5857 5857 5856 5856 5855 5855
5736 5738 5740 5742 5743 5745 5749 5752 5753 5755 5759 5762 5766 5770 5773 5779 5783 5786 5793 5796 5798 5801 5805 5806 5807 5809 5812 5815 5819 5821 5824 5827 5830 5833 5835 5837 5839 5841 5842 5845 5847 5850 5852 5854 5854 5856 5857 5858 5859 5859 5861 5862 5862 5864 5865 5866 5868 5869 5870 5870 5871 5871 5872 5872 5872 5871 5871 5870 5869 5868 5868 5867 5867 5866 5865 5864 5863 5862 5862 5861 5861 5860 5860 5859 5858 5858 5858 5857 5857 5857 5856 5856 5855 5854 5854 5854 5854
5729 5731 5734 5736 5737 5739 5742 5746 5748 5749 5753 5756 5760 5763 5768 5774 5777 5782 5789 5791 5792 5796 5799 5801 5803 5805 5808 5811 5815 5817 5819 5824 5827 5829 5831 5833 5835 5837 5839 5841 5844 5847 5849 5850 5852 5853 5854 5856 5857 5857 5859 5860 5861 5862 5863 5864 5865 5866 5867 5868 5869 5869 5870 5870 5870 5870 5869 5869 5868 5867 5867 5866 5865 5864 5863 5863 5861 5861 5860 5860 5860 5859 5858 5858 5857 5856 5856 5856 5855 5855 5854 5854 5853 5853 5852 5852 5852
5722 5724 5727 5729 5730 5733 5735 5738 5742 5744 5747 5750 5753 5756 5762 5768 5771 5777 5782 5783 5786 5789 5791 5794 5797 5800 5803 5806 5810 5812 5814 5819 5822 5824 5826 5829 5830 5833 5836 5839 5841 5844 5846 5848 5850 5851 5852 5853 5854 5855 5856 5857 5859 5860 5861 5862 5863 5864 5865 5866 5867 5867 5868 5868 5868 5868 5868 5867 5866 5866 5865 5865 5864 5863 5862 5861 5860 5859 5858 5858 5858 5858 5857 5856 5855 5855 5855 5854 5854 5853 5853 5852 5852 5852 5851 5851 5851
5716 5718 5721 5722 5724 5726 5728 5731 5735 5738 5740 5743 5745 5748 5755 5760 5765 5772 5775 5778 5781 5783 5786 5788 5791 5794 5797 5800 5805 5808 5810 5814 5816 5817 5820 5824 5827 5829 5832 5836 5839 5842 5844 5846 5847 5848 5849 5851 5852 5853 5854 5855 5856 5858 5859 5860 5861 5862 5862 5863 5864 5865 5866 5866 5867 5866 5866 5865 5865 5864 5864 5863 5862 5861 5860 5859 5858 5857 5857 5857 5857 5857 5856 5855 5854 5854 5853 5853 5852 5851 5851 5851 5850 5850 5850 5850 5849
5709 5711 5714 5716 5718 5720 5721 5724 5727 5730 5733 5736 5737 5739 5745 5753 5761 5766 5768 5772 5775 5778 5782 5783 5786 5789 5791 5794 5798 5803 5806 5809 5811 5812 5815 5819 5823 5825 5827 5831 5835 5838 5841 5842 5844 5845 5846 5848 5850 5851 5852 5853 5854 5855 5856 5857 5858 5859 5860 5861 5862 5863 5863 5864 5865 5864 5864 5864 5863 5863 5862 5861 5860 5859 5858 5857 5856 5856 5856 5856 5855 5855 5854 5853 5853 5853 5852 5851 5851 5850 5849 5849 5849 5849 5849 5848 5848
5703 5705 5707 5710 5712 5713 5715 5718 5719 5722 5725 5729 5730 5731 5738 5749 5757 5757 5758 5764 5768 5773 5777 5778 5780 5783 5786 5789 5792 5797 5800 5804 5808 5810 5812 5815 5818 5821 5824 5827 5831 5834 5836 5838 5841 5843 5844 5846 5847 5849 5850 5851 5852 5853 5854 5855 5856 5857 5858 5859 5860 5860 5861 5862 5863 5863 5862 5862 5862 5861 5860 5859 5858 5857 5856 5855 5855 5854 5854 5854 5854 5854 5853 5852 5852 5851 5851 5850 5849 5848 5848 5848 5847 5847 5847 5847 5846
5698 5699 5701 5704 5706 5706 5709 5711 5712 5714 5717 5721 5723 5725 5733 5744 5748 5746 5750 5757 5761 5767 5772 5773 5775 5777 5781 5783 5786 5791 5795 5798 5803 5806 5809 5812 5815 5817 5819 5822 5825 5829 5831 5834 5837 5839 5841 5843 5844 5846 5848 5849 5850 5851 5852 5853 5853 5855 5856 5857 5858 5858 5859 5860 5861 5861 5861 5860 5860 5859 5858 5857 5856 5855 5854 5853 5853 5853 5853 5852 5852 5852 5851 5851 5851 5850 5849 5849 5848 5847 5847 5846 5846 5846 5845 5845 5845
5693 5694 5695 5698 5700 5702 5704 5704 5706 5708 5711 5714 5716 5721 5728 5736 5738 5737 5744 5750 5753 5760 5765 5767 5770 5772 5775 5778 5781 5785 5789 5792 5796 5801 5805 5808 5811 5814 5816 5818 5821 5824 5827 5831 5834 5836 5838 5840 5841 5843 5844 5846 5847 5848 5849 5850 5851 5853 5854 5855 5856 5856 5857 5858 5859 5859 5859 5858 5858 5857 5857 5855 5854 5853 5852 5851 5851 5851 5851 5851 5851 5850 5850 5850 5849 5848 5848 5847 5847 5846 5846 5845 5845 5844 5844 5844 5844
5688 5689 5690 5692 5695 5697 5698 5698 5700 5703 5705 5707 5710 5716 5720 5725 5729 5731 5737 5742 5745 5752 5757 5761 5764 5766 5770 5773 5776 5779 5783 5787 5789 5795 5800 5803 5807 5810 5813 5816 5818 5821 5824 5827 5830 5832 5835 5837 5838 5840 5841 5842 5844 5846 5847 5848 5849 5851 5852 5853 5854 5854 5855 5856 5857 5857 5857 5856 5856 5855 5855 5854 5853 5851 5850 5850 5849 5849 5849 5849 5849 5849 5849 5849 5848 5847 5846 5846 5846 5845 5845 5844 5843 5843 5843 5842 5842
5683 5683 5684 5685 5688 5691 5692 5692 5695 5697 5699 5701 5704 5709 5712 5716 5722 5724 5729 5733 5738 5745 5751 5755 5757 5760 5764 5767 5771 5774 5777 5781 5784 5790 5794 5797 5801 5805 5808 5812 5815 5817 5821 5824 5826 5829 5831 5833 5835 5837 5838 5839 5840 5843 5844 5845 5847 5848 5850 5851 5852 5852 5853 5854 5854 5854 5854 5854 5854 5853 5852 5852 5851 5850 5849 5848 5848 5848 5848 5848 5848 5847 5847 5847 5847 5846 5845 5845 5844 5844 5843 5843 5842 5841 5841 5841 5840
5675 5677 5677 5679 5682 5685 5686 5687 5689 5690 5692 5694 5698 5702 5705 5710 5714 5716 5721 5726 5731 5738 5743 5747 5750 5754 5758 5761 5765 5768 5772 5776 5780 5785 5790 5793 5796 5799 5803 5807 5811 5813 5817 5820 5822 5824 5827 5830 5832 5834 5835 5836 5837 5839 5840 5842 5844 5846 5847 5848 5849 5850 5851 5851 5852 5852 5852 5852 5851 5851 5850 5850 5849 5848 5847 5847 5846 5846 5846 5846 5846 5846 5845 5845 5845 5844 5844 5843 5843 5842 5842 5841 5841 5840 5839 5839 5839
5669 5671 5672 5673 5676 5679 5681 5683 5684 5684 5685 5688 5693 5696 5698 5702 5707 5709 5714 5719 5725 5732 5736 5740 5744 5748 5752 5755 5759 5763 5767 5771 5776 5781 5785 5789 5791 5794 5798 5801 5806 5809 5812 5816 5817 5819 5823 5826 5829 5831 5833 5834 5834 5835 5837 5839 5841 5843 5845 5846 5847 5847 5848 5849 5849 5849 5849 5849 5849 5848 5848 5847 5846 5846 5845 5845 5845 5844 5844 5844 5844 5844 5843 5843 5843 5842 5842 5842 5841 5841 5840 5840 5839 5838 5838 5838 5838
5664 5665 5666 5668 5671 5674 5677 5678 5679 5678 5678 5683 5688 5689 5690 5695 5699 5702 5706 5712 5718 5725 5729 5734 5738 5741 5745 5749 5753 5758 5762 5767 5772 5776 5780 5784 5787 5789 5793 5797 5800 5803 5807 5812 5814 5816 5819 5823 5826 5828 5830 5831 5832 5833 5835 5837 5839 5841 5842 5843 5844 5845 5846 5846 5846 5846 5846 5846 5846 5845 5845 5845 5844 5843 5843 5843 5843 5843 5842 5842 5842 5842 5842 5841 5841 5841 5840 5840 5839 5839 5838 5838 5837 5837 5836 5836 5836
5658 5660 5661 5663 5666 5670 5672 5672 5673 5672 5672 5678 5682 5681 5683 5688 5691 5694 5699 5704 5712 5718 5722 5726 5731 5734 5738 5743 5747 5753 5757 5762 5767 5771 5775 5779 5782 5785 5788 5792 5795 5797 5803 5809 5811 5813 5816 5819 5822 5825 5827 5828 5830 5832 5833 5835 5836 5838 5839 5840 5841 5842 5843 5843 5843 5843 5843 5843 5843 5843 5842 5842 5841 5841 5841 5840 5840 5840 5840 5840 5840 5840 5840 5840 5839 5839 5838 5838 5838 5837 5837 5836 5836 5835 5834 5834 5834
5652 5654 5656 5659 5663 5666 5666 5665 5667 5666 5665 5671 5675 5674 5677 5682 5683 5688 5692 5697 5705 5710 5713 5719 5723 5727 5732 5737 5742 5747 5751 5756 5761 5767 5770 5773 5777 5781 5784 5788 5791 5794 5799 5804 5807 5809 5812 5815 5818 5821 5823 5826 5828 5830 5831 5833 5834 5835 5836 5837 5839 5840 5840 5840 5840 5840 5840 5840 5840 5840 5840 5839 5839 5839 5838 5838 5838 5838 5838 5838 5838 5838 5838 5838 5838 5837 5836 5836 5836 5835 5835 5834 5834 5833 5833 5833 5833
5647 5649 5651 5655 5659 5659 5657 5657 5659 5659 5659 5664 5667 5667 5670 5676 5677 5681 5686 5691 5697 5701 5705 5712 5717 5722 5728 5733 5736 5741 5746 5751 5757 5762 5765 5767 5771 5775 5780 5783 5786 5791 5795 5799 5802 5805 5809 5812 5815 5817 5820 5823 5825 5827 5829 5830 5831 5833 5834 5835 5836 5838 5837 5837 5837 5837 5837 5838 5838 5837 5837 5837 5836 5836 5836 5836 5836 5836 5836 5836 5836 5836 5836 5836 5836 5835 5834 5834 5834 5833 5833 5833 5832 5831 5831 5831 5831
5642 5644 5647 5650 5652 5649 5648 5649 5651 5651 5654 5658 5660 5658 5662 5669 5671 5674 5681 5684 5689 5694 5698 5704 5710 5717 5722 5726 5730 5734 5740 5746 5751 5756 5759 5762 5766 5771 5776 5779 5782 5787 5792 5796 5799 5802 5806 5809 5812 5814 5816 5819 5822 5824 5826 5827 5829 5830 5831 5832 5834 5835 5835 5834 5834 5833 5834 5835 5835 5835 5834 5834 5834 5834 5834 5833 5833 5834 5834 5834 5834 5834 5833 5834 5834 5833 5832 5832 5832 5831 5831 5830 5830 5830 5829 5829 5829
5636 5639 5642 5643 5642 5641 5641 5643 5643 5644 5649 5653 5652 5648 5651 5662 5664 5668 5676 5679 5682 5686 5690 5696 5703 5709 5714 5718 5723 5729 5734 5740 5745 5750 5754 5757 5761 5766 5771 5774 5778 5784 5788 5792 5795 5798 5802 5806 5808 5810 5812 5815 5818 5821 5822 5824 5826 5827 5828 5829 5831 5832 5832 5831 5830 5830 5831 5832 5832 5832 5832 5831 5831 5831 5831 5831 5831 5831 5832 5832 5832 5832 5831 5831 5831 5831 5830 5830 5830 5829 5828 5828 5828 5828 5828 5827 5826
5629 5633 5636 5634 5632 5633 5636 5637 5635 5637 5642 5644 5644 5642 5643 5654 5660 5663 5668 5672 5675 5679 5682 5690 5696 5701 5707 5711 5717 5722 5727 5733 5738 5743 5748 5751 5756 5760 5765 5769 5774 5779 5783 5787 5790 5794 5798 5801 5803 5806 5807 5811 5814 5817 5819 5821 5823 5825 5825 5827 5828 5829 5829 5828 5827 5828 5829 5829 5829 5829 5829 5828 5828 5828 5828 5828 5829 5829 5829 5830 5830 5829 5829 5828 5828 5829 5828 5828 5827 5827 5826 5826 5826 5826 5825 5825 5825
5622 5627 5628 5625 5625 5627 5629 5630 5628 5631 5635 5634 5639 5641 5638 5645 5655 5656 5660 5665 5669 5673 5677 5685 5690 5694 5700 5705 5710 5714 5719 5725 5731 5736 5741 5745 5750 5755 5760 5765 5770 5775 5778 5782 5786 5789 5793 5796 5799 5802 5804 5806 5810 5813 5816 5818 5820 5821 5822 5824 5825 5826 5826 5825 5825 5825 5825 5826 5826 5826 5826 5825 5825 5825 5825 5826 5826 5826 5827 5827 5827 5827 5827 5826 5825 5826 5826 5825 5825 5824 5823 5823 5823 5823 5823 5823 5823
5617 5619 5619 5619 5620 5621 5622 5623 5623 5625 5627 5627 5635 5638 5632 5636 5645 5647 5652 5659 5662 5667 5673 5678 5682 5686 5691 5697 5702 5706 5711 5716 5722 5728 5734 5739 5744 5749 5755 5761 5766 5770 5774 5777 5782 5785 5789 5792 5795 5798 5800 5802 5805 5809 5812 5815 5816 5818 5819 5821 5822 5823 5823 5822 5822 5822 5822 5822 5823 5823 5823 5823 5823 5822 5822 5823 5824 5824 5825 5825 5825 5825 5825 5824 5824 5823 5823 5823 5822 5822 5821 5821 5821 5821 5821 5821 5821
5612 5611 5611 5613 5614 5615 5616 5616 5617 5618 5617 5620 5631 5634 5627 5628 5634 5637 5644 5652 5656 5662 5666 5669 5673 5677 5682 5689 5693 5697 5703 5708 5714 5720 5726 5732 5737 5743 5750 5756 5761 5766 5769 5773 5777 5780 5784 5787 5791 5794 5797 5798 5801 5805 5809 5811 5813 5815 5816 5818 5820 5820 5820 5819 5818 5819 5819 5819 5820 5820 5820 5820 5820 5820 5820 5820 5821 5822 5822 5822 5823 5823 5822 5822 5822 5822 5822 5821 5820 5819 5819 5819 5819 5819 5819 5819 5818
5607 5606 5607 5607 5607 5610 5610 5609 5611 5609 5607 5616 5628 5629 5621 5617 5624 5630 5636 5644 5650 5654 5657 5661 5666 5671 5676 5681 5686 5690 5694 5699 5705 5712 5719 5725 5731 5737 5743 5749 5755 5761 5764 5767 5771 5774 5778 5782 5787 5791 5793 5795 5798 5802 5805 5807 5809 5811 5813 5815 5817 5817 5816 5816 5815 5816 5816 5816 5817 5817 5817 5817 5817 5817 5817 5817 5818 5819 5819 5820 5820 5820 5820 5820 5821 5820 5819 5819 5819 5818 5816 5816 5816 5817 5816 5816 5816
5604 5604 5603 5603 5604 5604 5603 5604 5605 5601 5602 5614 5621 5620 5613 5607 5615 5625 5630 5638 5644 5647 5651 5657 5660 5664 5669 5673 5679 5683 5686 5691 5697 5705 5712 5718 5724 5730 5736 5743 5749 5754 5757 5761 5765 5768 5772 5777 5782 5786 5789 5791 5794 5798 5801 5804 5806 5808 5810 5812 5814 5814 5813 5812 5812 5813 5813 5813 5814 5814 5814 5814 5814 5814 5814 5815 5815 5816 5816 5817 5818 5818 5818 5818 5819 5818 5816 5816 5817 5816 5815 5814 5814 5814 5814 5813 5813
5601 5601 5601 5600 5600 5599 5598 5600 5599 5597 5601 5609 5612 5611 5605 5601 5610 5621 5627 5635 5640 5641 5645 5649 5652 5656 5661 5665 5670 5675 5679 5684 5690 5698 5705 5711 5717 5723 5730 5736 5743 5747 5751 5756 5760 5764 5768 5773 5777 5781 5784 5787 5791 5794 5797 5800 5802 5804 5807 5809 5811 5811 5810 5809 5809 5810 5810 5810 5811 5811 5811 5811 5811 5812 5812 5812 5813 5813 5814 5814 5815 5815 5815 5816 5817 5815 5812 5813 5814 5814 5813 5813 5812 5812 5811 5810 5810
5597 5597 5597 5596 5596 5595 5595 5597 5596 5594 5597 5601 5604 5603 5597 5598 5608 5617 5623 5628 5631 5631 5634 5638 5643 5648 5653 5657 5662 5667 5672 5676 5682 5690 5697 5704 5711 5717 5723 5730 5737 5742 5746 5751 5755 5759 5764 5768 5772 5776 5781 5784 5787 5791 5794 5797 5799 5801 5803 5806 5807 5807 5806 5806 5806 5807 5807 5807 5808 5808 5808 5808 5808 5809 5809 5810 5810 5811 5811 5811 5812 5812 5812 5813 5815 5813 5810 5811 5811 5811 5810 5810 5809 5809 5808 5808 5807
5593 5593 5592 5591 5592 5591 5592 5593 5591 5591 5593 5595 5597 5595 5592 5598 5606 5610 5615 5619 5620 5622 5626 5630 5635 5641 5647 5650 5654 5659 5664 5668 5674 5682 5689 5697 5704 5711 5717 5724 5731 5736 5741 5746 5751 5756 5759 5764 5767 5772 5776 5780 5784 5787 5791 5793 5796 5797 5800 5802 5804 5803 5802 5802 5803 5803 5804 5805 5805 5805 5805 5805 5806 5806 5807 5807 5808 5808 5809 5809 5809 5809 5809 5810 5812 5811 5809 5809 5809 5808 5808 5807 5807 5806 5805 5805 5805
5590 5588 5586 5586 5589 5588 5587 5588 5587 5588 5589 5590 5592 5590 5590 5597 5601 5603 5608 5610 5612 5615 5619 5624 5627 5633 5639 5642 5646 5652 5657 5661 5666 5673 5681 5689 5696 5703 5710 5717 5723 5729 5736 5741 5747 5752 5756 5760 5764 5768 5773 5777 5781 5784 5787 5790 5792 5794 5796 5799 5800 5799 5799 5799 5799 5800 5801 5802 5802 5802 5802 5803 5803 5803 5804 5805 5805 5806 5806 5807 5807 5807 5807 5807 5809 5809 5808 5808 5807 5806 5806 5805 5804 5803 5803 5803 5802
5585 5583 5582 5583 5585 5584 5583 5583 5584 5585 5583 5584 5588 5588 5588 5591 5592 5597 5601 5601 5604 5607 5609 5615 5618 5623 5629 5633 5638 5643 5648 5653 5657 5664 5672 5681 5689 5697 5703 5710 5717 5723 5730 5736 5742 5747 5753 5757 5760 5765 5769 5773 5777 5780 5784 5786 5788 5790 5793 5795 5796 5795 5795 5795 5796 5797 5798 5799 5799 5799 5799 5800 5800 5801 5801 5802 5803 5803 5804 5804 5805 5805 5805 5805 5805 5806 5805 5805 5805 5804 5803 5803 5802 5801 5801 5800 5800
5580 5578 5578 5579 5579 5579 5580 5579 5580 5581 5579 5581 5585 5584 5585 5585 5586 5592 5595 5594 5597 5599 5600 5604 5608 5611 5616 5621 5627 5632 5637 5643 5648 5655 5664 5673 5682 5690 5697 5704 5711 5718 5725 5731 5737 5743 5749 5753 5757 5761 5765 5769 5773 5777 5780 5782 5784 5786 5789 5791 5792 5791 5791 5791 5792 5794 5795 5796 5797 5796 5796 5797 5798 5798 5799 5799 5800 5801 5801 5802 5802 5803 5803 5803 5803 5803 5802 5802 5802 5801 5801 5800 5799 5798 5798 5798 5798
5576 5574 5573 5573 5573 5574 5576 5575 5576 5578 5577 5578 5580 5579 5579 5581 5583 5587 5587 5586 5589 5591 5592 5594 5597 5601 5605 5610 5615 5621 5628 5635 5641 5648 5657 5667 5676 5684 5691 5698 5705 5713 5719 5726 5732 5737 5743 5749 5753 5757 5761 5766 5770 5773 5776 5778 5780 5783 5786 5787 5787 5787 5787 5787 5789 5791 5792 5793 5794 5793 5794 5794 5795 5796 5796 5796 5797 5798 5799 5799 5800 5800 5801 5801 5801 5800 5800 5800 5800 5799 5798 5797 5796 5796 5796 5795 5795
5572 5570 5569 5569 5570 5571 5573 5573 5574 5576 5575 5574 5574 5574 5575 5578 5580 5581 5580 5580 5582 5585 5587 5588 5591 5595 5599 5603 5608 5614 5622 5629 5636 5643 5651 5661 5670 5678 5686 5693 5700 5707 5714 5720 5726 5732 5738 5743 5748 5752 5756 5761 5764 5768 5771 5774 5776 5779 5782 5783 5783 5783 5783 5784 5786 5788 5789 5790 5790 5790 5791 5792 5792 5793 5793 5794 5795 5796 5796 5797 5797 5798 5798 5799 5799 5798 5798 5798 5797 5797 5796 5795 5795 5794 5793 5793 5793
5569 5567 5566 5566 5567 5569 5570 5571 5572 5573 5573 5572 5571 5570 5571 5575 5577 5577 5576 5577 5578 5582 5585 5585 5587 5591 5594 5600 5605 5611 5617 5624 5631 5638 5645 5654 5663 5672 5680 5687 5695 5702 5708 5715 5722 5727 5733 5737 5742 5747 5752 5756 5760 5764 5767 5769 5772 5776 5779 5779 5779 5780 5780 5780 5782 5785 5786 5787 5787 5787 5788 5789 5789 5790 5790 5791 5792 5793 5794 5794 5795 5795 5796 5796 5796 5796 5796 5795 5795 5795 5794 5793 5793 5792 5791 5791 5790
5567 5566 5565 5565 5566 5567 5569 5569 5570 5571 5571 5571 5570 5568 5569 5572 5573 5573 5573 5575 5576 5579 5582 5584 5586 5589 5592 5597 5602 5607 5614 5620 5626 5633 5639 5647 5656 5666 5674 5682 5689 5696 5702 5709 5716 5722 5727 5732 5737 5742 5747 5752 5756 5760 5763 5765 5768 5772 5775 5776 5775 5776 5776 5777 5779 5781 5783 5784 5784 5785 5785 5786 5787 5787 5788 5789 5790 5790 5791 5791 5792 5793 5793 5794 5794 5794 5793 5793 5792 5792 5792 5791 5790 5789 5789 5788 5787